Regional Weather Roundup
Issued by NWS Little Rock, AR

Home | Current Version | Previous Version | Graphics & Text | Print | Product List | Glossary On
Versions: 1 2 3 4 5 6 7 8 9 10 11 12 13 14 15 16 17 18 19 20 21 22 23 24 25 26 27 28 29 30 31 32 33 34 35 36 37 38 39 40 41 42 43 44 45 46 47 48 49 50
000
ASUS44 KLZK 132205
RWRLZK

WEATHER ROUNDUP FOR ARKANSAS
NATIONAL WEATHER SERVICE LITTLE ROCK AR
400 PM CST SAT FEB 13 2016

NOTE: "FAIR" INDICATES FEW OR NO CLOUDS BELOW 12,000 FEET WITH NO
SIGNIFICANT WEATHER AND/OR OBSTRUCTIONS TO VISIBILITY.

ARZ001-003-010-029-132300-
NORTHWEST ARKANSAS

CITY           SKY/WX    TMP DP  RH WIND       PRES   REMARKS
FAYETTEVILLE   SUNNY     49  17  28 S13       30.27F
FORT SMITH     SUNNY     50  13  22 E12G20    30.30F
HARRISON       CLOUDY    40   3  21 E12       30.34F
BENTONVILLE    CLOUDY    48  10  21 E7        30.28F
ROGERS         CLOUDY    45  10  24 E13       30.27F
SILOAM SPGS    SUNNY     52  19  28 SE12      30.26F
HIGHFILL       CLOUDY    49  13  23 E7        30.26F
SPRINGDALE     SUNNY     48  10  21 E10       30.27F
$$

ARZ004-005-016-132300-
NORTH CENTRAL ARKANSAS

CITY           SKY/WX    TMP DP  RH WIND       PRES   REMARKS
BATESVILLE     MOSUNNY   36   3  25 NE8       30.47F
FLIPPIN        MOSUNNY   41   1  19 E9        30.38F
MTN HOME       MOSUNNY   37   0  21 E8        30.38F
$$

ARZ040-041-132300-
WEST CENTRAL ARKANSAS

CITY           SKY/WX    TMP DP  RH WIND       PRES   REMARKS
MENA           SUNNY     54  23  30 SE6       30.29F
MOUNT IDA      SUNNY     48  17  29 SE9       30.32F
$$

ARZ009-017-025-026-028-132300-
NORTHEAST ARKANSAS

CITY           SKY/WX    TMP DP  RH WIND       PRES   REMARKS
JONESBORO      PTSUNNY   31   7  36 E13       30.50F WCI  21
NEWPORT        SUNNY     34   5  29 E9        30.50F WCI  27
WALNUT RIDGE   CLOUDY    32   5  32 E13       30.51F WCI  22
BLYTHEVILLE    CLOUDY    32   9  38 NE10      30.53S WCI  24
$$

ARZ022-023-033-042-044-132300-
CENTRAL ARKANSAS

CITY           SKY/WX    TMP DP  RH WIND       PRES   REMARKS
LITTLE ROCK    MOSUNNY   40   8  26 SE13      30.45F
N LITTLE ROCK  MOSUNNY   41  10  28 E10       30.45F
JACKSONVILLE   MOSUNNY   40   5  23 E8        30.44F
SEARCY         CLOUDY    37  10  32 NE12      30.48F
HOT SPRINGS    SUNNY     46  14  27 E10       30.38F
RUSSELLVILLE   SUNNY     43   9  24 SE8       30.39F
CLINTON        FAIR      41   3  20 SE3       30.43F
$$

ARZ036-132300-
EAST ARKANSAS

CITY           SKY/WX    TMP DP  RH WIND       PRES   REMARKS
WEST MEMPHIS   SUNNY     37   9  31 NE9       30.46F
$$

ARZ050-053-066-070-073-132300-
SOUTHWEST ARKANSAS

CITY           SKY/WX    TMP DP  RH WIND       PRES   REMARKS
ARKADELPHIA    FAIR      49  16  27 E9        30.39F
CAMDEN         SUNNY     50   9  18 NE9       30.39F
TEXARKANA      SUNNY     52  26  36 VRB7      30.33F
EL DORADO      SUNNY     51  19  28 E8        30.37F
DE QUEEN       SUNNY     53  26  35 E12       30.30F
$$

ARZ056-057-069-132300-
SOUTHEAST ARKANSAS

CITY           SKY/WX    TMP DP  RH WIND       PRES   REMARKS
PINE BLUFF     SUNNY     42   8  24 E9        30.44F
STUTTGART      SUNNY     39  10  30 E10       30.46F
MONTICELLO     SUNNY     46  11  24 NE9       30.42F

$$





USA.gov is the U.S. government's official web portal to all federal, state and local government web resources and services.